[[{"header":{"parameterUnit":"m.s-1","parameterCategory":1,"la1":30.2991,"la2":30.254,"lo1":-89.0895,"lo2":-89.0444,"dy":0.0017,"dx":0.0017,"nx":28,"ny":28,"refTime":"2023-08-25T09:00:00:Z","depth":0,"parameterNumber":2,"parameterNumberName":"U-component_of_WINDS"},"data":[0,0,0,0,0,0,0,0,0,0,0,0,0,0,0,0,0,0,0,0,0,0,0,0,0,0,0,0,0,0,0,0,0,0,0,0,0,0,0,0,0,0,0,0,0,0,0,0,0,0,0,0,0,0,0,0,0,0,4.3825,4.3826,0,4.3978,4.398,4.3982,4.3938,4.3934,4.3931,4.3928,4.4087,4.4094,4.4101,0,0,0,0,0,0,0,0,0,0,0,0,0,4.3493,4.3499,4.3824,4.3826,4.3828,4.3978,4.398,4.3982,4.3938,4.3934,4.393,4.3927,4.4085,4.4093,4.4102,0,0,0,0,0,0,0,0,0,0,0,0,0,4.3641,4.3502,4.3824,4.3824,4.3826,4.3977,4.398,4.3983,4.3939,4.3934,4.3929,4.3925,4.4082,4.4092,4.4103,4.4264,0,0,4.4136,4.414,0,0,0,0,0,0,0,0,4.3633,4.3653,4.3822,4.3825,4.3827,4.3934,4.3921,4.4077,4.394,4.3896,4.3928,4.3923,4.404,4.4054,4.4093,4.4271,4.4278,4.4137,4.4143,4.4148,4.4151,0,0,0,0,0,0,0,4.3623,4.3646,4.3885,4.3825,4.3827,4.3817,4.3833,4.3951,4.3993,4.3899,4.3897,4.3915,4.404,4.4083,4.4097,4.4281,4.4136,4.4146,4.4153,4.4157,4.4597,4.4602,0,0,0,0,0,0,4.3611,4.3638,4.388,4.389,4.3716,4.3827,4.3844,4.3904,4.3991,4.4,4.3919,4.3913,4.4067,4.4084,4.4102,4.4295,4.4148,4.4158,4.4164,4.4592,4.4598,4.4604,0,0,0,0,0,0,4.3604,4.3633,4.3874,4.3763,4.3793,4.3837,4.3905,4.391,4.3952,4.4006,4.4014,4.3955,4.4064,4.4087,4.4224,4.4299,4.4163,4.4172,4.4586,4.4594,4.4601,4.4682,0,0,0,0,0,0,4.3594,4.363,4.3692,4.3765,4.3799,4.3993,4.391,4.3916,4.3971,4.3964,4.4042,4.405,4.4062,4.4208,4.4234,4.4312,4.4181,4.4579,4.4589,4.4599,4.4673,4.4692,4.4708,0,0,0,0,0,4.3583,4.3709,4.3695,4.3725,4.3877,4.3998,4.4017,4.4028,4.3977,4.4039,4.4074,4.4048,4.4287,4.4222,4.4252,4.4334,4.4574,4.4586,4.4598,4.4665,4.4688,4.4708,0,0,0,0,0,0,4.3645,4.3719,4.3704,4.3858,4.3922,4.399,4.4069,4.4052,4.4132,4.4122,4.4132,4.415,4.429,4.4326,4.4252,4.4493,4.4423,4.4442,4.4464,4.4487,4.4504,4.4492,4.419,0,0,0,0,0,4.3676,4.3768,4.3828,4.3958,4.3991,4.4024,4.4077,4.408,4.4146,4.4173,4.4218,4.4283,4.4373,4.4432,4.4518,4.4679,4.4694,4.4749,4.4767,4.4781,4.4796,4.4882,4.4907,4.4643,4.4643,4.4642,0,0,4.3743,4.3795,4.3852,4.3972,4.4021,4.4115,4.4047,4.415,4.422,4.4189,4.432,4.4355,4.4429,4.4578,4.4646,4.4612,4.4873,4.4796,4.4807,4.4815,4.4897,4.4921,4.4944,4.4651,4.4649,4.4648,0,0,4.3911,4.396,4.4073,4.4124,4.4199,4.4221,4.4248,4.4319,4.4341,4.4472,4.445,4.4534,4.4689,4.4742,4.479,4.4977,4.4956,4.5006,4.5097,4.518,4.5201,4.5219,4.5284,4.5308,4.5021,4.5021,4.5021,0,4.3984,4.4124,4.4133,4.4238,4.429,4.4266,4.438,4.4429,4.453,4.4567,4.4528,4.4721,4.4769,4.4929,4.4975,4.5015,4.5045,4.4996,4.5197,4.5216,4.5233,4.5295,4.532,4.5026,4.5026,4.5025,4.5025,0,4.4209,4.4307,4.4389,4.4485,4.4548,4.4657,4.4682,4.4744,4.4741,4.4767,4.4901,4.4958,4.5054,4.5093,4.5092,4.5252,4.5229,4.5194,4.5123,4.5263,4.5322,4.5346,4.5034,4.5032,4.503,4.5029,0,0,4.442,4.4519,4.4549,4.4591,4.4673,4.4749,4.4856,4.495,4.5002,4.5072,4.5162,4.5294,4.5261,4.5315,4.532,4.5393,4.5536,4.5349,4.5351,4.538,4.5715,4.5739,4.5766,4.5523,4.5528,4.5531,4.5707,0,4.4593,4.4781,4.4792,4.4963,4.5052,4.5031,4.5124,4.5184,4.5211,4.5292,4.5322,4.5414,4.5365,4.5397,4.5469,4.5503,4.5603,4.5491,4.5605,4.5609,4.5585,4.5797,4.5823,4.5987,4.5731,4.5735,4.5737,0,4.482,4.4896,4.5075,4.5143,4.5181,4.5265,4.535,4.5428,4.5495,4.551,4.5569,4.5564,4.5673,4.5601,4.5752,4.5675,4.5723,4.5747,4.5754,4.5763,4.568,4.581,4.6039,4.6063,4.5774,4.5771,4.5768,0,4.4953,4.51,4.5226,4.5264,4.5346,4.5405,4.5442,4.5505,4.556,4.5636,4.5671,4.5759,4.5807,4.5875,4.5893,4.5838,4.6043,4.5972,4.6057,4.6056,4.6099,4.6096,4.6337,4.6134,4.6134,4.6133,4.6133,0,4.5144,4.5254,4.5286,4.5364,4.5486,4.5498,4.5619,4.5652,4.5708,4.5791,4.5779,4.5857,4.5877,4.5959,4.5974,4.6096,4.6119,4.6132,4.6135,4.6132,4.613,4.6162,4.615,4.614,4.6138,4.6137,4.6136,0,4.5313,4.5339,4.5474,4.5541,4.556,4.5647,4.5704,4.5778,4.5803,4.5909,4.5934,4.5974,4.607,4.6095,4.621,4.622,4.6363,4.6356,4.6339,4.6338,4.6421,4.6412,4.6689,4.6726,4.6501,4.6503,4.6505,0,4.5432,4.5516,4.5591,4.5645,4.5685,4.5773,4.5828,4.5844,4.5902,4.5985,4.6049,4.6143,4.6219,4.6373,4.6413,4.65,4.6494,4.6585,4.6507,4.6501,4.6492,4.6486,4.6494,4.6599,4.6601,4.6603,4.6605,0,4.564,4.5648,4.5729,4.5814,4.588,4.5948,4.6013,4.6059,4.6083,4.615,4.6247,4.6306,4.6422,4.6516,4.6604,4.6642,4.6628,4.663,4.6653,4.6651,4.6637,4.6643,4.6377,4.6623,4.6621,4.662,4.6619,4.6618,4.5786,4.5858,4.5922,4.6012,4.6062,4.6123,4.6195,4.6229,4.631,4.6406,4.641,4.6516,4.6581,4.6697,4.6741,4.6823,4.6796,4.6831,4.684,4.6847,4.6853,4.6625,4.684,4.684,4.6839,4.6839,4.6838,0,4.5991,4.6031,4.6113,4.6204,4.6274,4.6254,4.6325,4.6385,4.6478,4.6539,4.6614,4.6725,4.6815,4.6862,4.6951,4.7009,4.7004,4.7031,4.7026,4.7035,4.6874,4.6843,4.7033,4.7033,4.7033,4.7033,4.7033,4.7033,4.6105,4.6227,4.6243,4.6389,4.6428,4.653,4.6572,4.6628,4.6677,4.6801,4.6876,4.6905,4.6961,4.7054,4.7136,4.7147,4.718,4.721,4.7218,4.7066,4.7046,4.7027,4.6998,4.7218,4.7218,4.7372,4.7373,4.7374]},{"header":{"parameterUnit":"m.s-1","parameterCategory":1,"la1":30.2991,"la2":30.254,"lo1":-89.0895,"lo2":-89.0444,"dy":0.0017,"dx":0.0017,"nx":28,"ny":28,"refTime":"2023-08-25T09:00:00:Z","depth":0,"parameterNumber":3,"parameterNumberName":"V-component_of_WINDS"},"data":[0,0,0,0,0,0,0,0,0,0,0,0,0,0,0,0,0,0,0,0,0,0,0,0,0,0,0,0,0,0,0,0,0,0,0,0,0,0,0,0,0,0,0,0,0,0,0,0,0,0,0,0,0,0,0,0,0,0,1.3417,1.3417,0,1.3417,1.3417,1.3417,1.3364,1.3363,1.3362,1.336,1.3362,1.3363,1.3364,0,0,0,0,0,0,0,0,0,0,0,0,0,1.3371,1.3373,1.3417,1.3417,1.3417,1.3417,1.3417,1.3417,1.3365,1.3363,1.3361,1.336,1.3361,1.3363,1.3364,0,0,0,0,0,0,0,0,0,0,0,0,0,1.3383,1.3373,1.3417,1.3391,1.3388,1.3417,1.3417,1.3417,1.3365,1.3363,1.3361,1.3359,1.3361,1.3363,1.3365,1.3419,0,0,1.3371,1.3372,0,0,0,0,0,0,0,0,1.3383,1.3385,1.3395,1.3393,1.339,1.3389,1.3402,1.3418,1.3366,1.3374,1.336,1.3358,1.3372,1.3373,1.3378,1.3419,1.3419,1.3371,1.3372,1.3373,1.3374,0,0,0,0,0,0,0,1.3382,1.3385,1.3417,1.3395,1.3392,1.3379,1.3379,1.3404,1.3385,1.3373,1.3369,1.337,1.3371,1.3376,1.3378,1.3419,1.3371,1.3373,1.3374,1.3375,1.3503,1.3506,0,0,0,0,0,0,1.3385,1.3385,1.3417,1.3417,1.3381,1.3382,1.3381,1.3391,1.3385,1.3381,1.3372,1.3368,1.3374,1.3375,1.3377,1.344,1.3373,1.3375,1.3376,1.3501,1.3504,1.3506,0,0,0,0,0,0,1.3384,1.3388,1.3417,1.34,1.3402,1.3385,1.3397,1.3392,1.3398,1.3383,1.338,1.3381,1.3372,1.3375,1.3409,1.3439,1.3376,1.3378,1.3499,1.3502,1.3505,1.3566,0,0,0,0,0,0,1.3383,1.3388,1.3409,1.3401,1.3404,1.3449,1.3399,1.3394,1.3401,1.3396,1.3391,1.3388,1.3371,1.3406,1.3411,1.3441,1.3379,1.3496,1.35,1.3504,1.3561,1.3571,1.3579,0,0,0,0,0,1.3381,1.3426,1.341,1.3414,1.3429,1.345,1.3452,1.3431,1.3404,1.3424,1.3415,1.3388,1.3435,1.341,1.3415,1.3446,1.3494,1.3499,1.3504,1.3557,1.3569,1.3579,0,0,0,0,0,0,1.3439,1.3425,1.3407,1.345,1.3452,1.3441,1.3467,1.3444,1.3454,1.3448,1.3422,1.3421,1.3459,1.3456,1.3428,1.3498,1.346,1.3466,1.3499,1.351,1.3519,1.3519,1.3381,0,0,0,0,0,1.3457,1.3475,1.3462,1.3501,1.3503,1.3485,1.3493,1.3477,1.3477,1.3478,1.3471,1.3473,1.3488,1.3499,1.3512,1.356,1.3558,1.3584,1.3593,1.3601,1.3607,1.3631,1.3643,1.3523,1.3523,1.3523,0,0,1.3494,1.3488,1.3501,1.3513,1.3512,1.3532,1.3486,1.3509,1.3523,1.3482,1.3513,1.3508,1.3509,1.355,1.3568,1.3548,1.3639,1.3607,1.3613,1.3615,1.3638,1.3649,1.3659,1.3526,1.3526,1.3525,0,0,1.3571,1.3569,1.3601,1.3601,1.36,1.3588,1.3596,1.3588,1.3583,1.3614,1.3583,1.36,1.3627,1.3628,1.3632,1.3709,1.3685,1.3714,1.3762,1.3786,1.3796,1.3804,1.3831,1.3841,1.372,1.372,1.372,0,1.3617,1.3645,1.3621,1.3646,1.3651,1.3614,1.3646,1.3648,1.3652,1.3656,1.3634,1.3666,1.3664,1.3705,1.3724,1.3728,1.3736,1.3715,1.3796,1.3804,1.3812,1.3837,1.3848,1.3723,1.3723,1.3723,1.3722,0,1.3702,1.3722,1.3748,1.3752,1.3761,1.379,1.3769,1.3781,1.3763,1.3753,1.3785,1.378,1.3792,1.38,1.3783,1.3838,1.3826,1.3801,1.3762,1.3827,1.3851,1.386,1.3728,1.3727,1.3726,1.3725,0,0,1.3816,1.3805,1.3815,1.3816,1.3812,1.3827,1.3854,1.3865,1.3875,1.3879,1.3901,1.3923,1.3899,1.3904,1.3887,1.3909,1.3969,1.388,1.388,1.3897,1.4029,1.4049,1.4061,1.3953,1.3955,1.3956,1.4029,0,1.3891,1.3936,1.3914,1.3961,1.3979,1.3943,1.3967,1.3967,1.3958,1.3972,1.3961,1.3978,1.3945,1.3948,1.3967,1.3958,1.3996,1.3952,1.3973,1.3974,1.3974,1.4073,1.4094,1.4163,1.4038,1.404,1.4041,0,1.3984,1.3991,1.404,1.4032,1.4039,1.406,1.4067,1.4081,1.408,1.4072,1.4077,1.4055,1.408,1.4042,1.4076,1.4047,1.4055,1.4051,1.4053,1.4055,1.4012,1.4077,1.4185,1.4195,1.4056,1.4054,1.4053,0,1.4062,1.4084,1.4116,1.4118,1.4109,1.4125,1.4122,1.4119,1.4127,1.4133,1.4138,1.4147,1.4153,1.4161,1.4142,1.4115,1.4179,1.4139,1.4173,1.4174,1.4188,1.4188,1.4299,1.4193,1.4193,1.4193,1.4192,0,1.4148,1.418,1.4151,1.417,1.4204,1.4179,1.4213,1.4207,1.4204,1.4222,1.4192,1.4209,1.4182,1.4197,1.4182,1.4213,1.4216,1.421,1.4206,1.4213,1.4214,1.4218,1.4212,1.4195,1.4195,1.4194,1.4194,0,1.4241,1.4223,1.4256,1.4245,1.4242,1.4268,1.4258,1.4276,1.4265,1.4288,1.4291,1.4273,1.4289,1.4271,1.4285,1.4275,1.4317,1.4305,1.4317,1.4314,1.4349,1.4346,1.4467,1.4481,1.4366,1.4367,1.4368,0,1.4297,1.4321,1.4312,1.4321,1.432,1.4336,1.4343,1.4318,1.4327,1.4327,1.4345,1.4358,1.4367,1.4394,1.4383,1.4393,1.4382,1.4423,1.4383,1.439,1.4382,1.4381,1.4383,1.4432,1.4433,1.4434,1.4435,0,1.4398,1.4388,1.4399,1.4407,1.4417,1.4422,1.4425,1.4435,1.4409,1.4421,1.4436,1.4443,1.4457,1.447,1.4478,1.4475,1.4451,1.4448,1.4456,1.4464,1.4469,1.4467,1.434,1.4445,1.4444,1.4443,1.4443,1.4442,1.4475,1.4493,1.449,1.4503,1.4503,1.4506,1.4522,1.4512,1.4524,1.4533,1.4518,1.4538,1.4536,1.4543,1.4543,1.4558,1.454,1.4552,1.4555,1.4559,1.4564,1.4467,1.4559,1.4558,1.4558,1.4558,1.4558,0,1.4574,1.457,1.4582,1.4587,1.4597,1.4573,1.4575,1.4586,1.4603,1.4603,1.4612,1.463,1.4642,1.4631,1.4642,1.4656,1.4645,1.4659,1.4658,1.4658,1.4579,1.4571,1.4668,1.4668,1.4668,1.4668,1.4668,1.4668,1.4627,1.4657,1.4646,1.4676,1.4671,1.4689,1.4693,1.4695,1.4695,1.4716,1.4726,1.4718,1.4714,1.4724,1.4734,1.473,1.4736,1.4754,1.4747,1.4674,1.4663,1.4653,1.4645,1.4755,1.4756,1.4824,1.4824,1.4825]}]]